sat.trackr.live / text

‹ back to catalog

STARLINK-1094

NORAD 44941 · 2020-001AD

PAYLOAD ACTIVE UNKNOWN

§ Identity

Operator
Country
US
Launch date
2020-01-07
Launch site
AFETR
Launch vehicle
Mass (kg)
RCS (m²)

Purposes: comms

External: N2YO · Heavens-Above · Gunter

§ Orbital elements

Epoch: 2026-09-20T03:34:28.807392Z

Period
91.90 min
Inclination
53.1450°
Eccentricity
0.0003016
Mean motion
15.66913822 rev/d
Perigee alt
365.7 km
Apogee alt
369.8 km
Semi-major
6,745.9 km
B*
3.3060e-4
RAAN
105.6454°
Arg perigee
79.8518°
Mean anomaly
280.2838°
Rev number
37,043

§ Raw data

STARLINK-10941 44941U 20001AD  26263.14894453  .00035307  00000+0  33060-3 0  99942 44941  53.1450 105.6454 0003016  79.8518 280.2838 15.66913822370436

JSON: /api/v1/satellites/44941 · /tle

For live sub-satellite position, see the globe view (requires WebGL).

§ Visibility from observer

Set your observer location to see the next 7 days of passes ≥ 10°. The values pass through the URL so the page stays shareable.

No JS? Fill the form by hand. The geolocation button needs JavaScript.